FENGYUN 2D

Last updated on Tue Feb 05 2019 03:02:48 GMT+0000 (Coordinated Universal Time)

1 29640U 06053A 19035.16425094 -.00000029 00000-0 10000-3 0 9990 2 29640 5.9836 54.7591 0011880 318.2598 230.5945 0.98192293 44581
UTC large
Height (km)
Speed (km/s)
/
Latitude / Longitude
Inclination (degrees)
Orbital Period (minutes)
Azimuth
Elevation
Range (km)
Doppler Factor

Next 0 passes for location: London (51.5072 / 0.1276)

Sorry there are no passes over London.
FENGYUN 2D